Find Starlink 11630

NORAD ID: 63111 Int'l Des: 2025-039 Owner: SPXS Country: US Constellation: starlink operational
LEOCIRCULAR

現在のビュー

3D地球を読み込み中...

About Starlink 11630

Starlink 11630 (NORAD 63111) is a starlink constellation satellite (v2 mini d2c) launched Feb 27, 2025 by SPXS of US. It operates in LEO, CIRCULAR orbit with a mass of 960.00 kg.

Starlink 11630について

説明を読み込み中...

次回通過

Passes for default location (London). Set your location on the main map for personalized predictions.

高度履歴

Loading altitude history...

軌道要素

1 63111U 25039H 26170.17747170 .00159131 00000-0 12190-2 0 9996
2 63111 42.9997 345.3984 0001920 286.4261 73.6395 15.70860864 75573
Epoch: Jun 19, 2026 • Age: 7 hours

現在のステータス

高度 367.7 km
速度 7.69 km/s
衛星直下点 -41.97°S, 171.11°W
打ち上げ日 Feb 27, 2025
運用期間 1.3 years
タイプ internet

技術仕様

分類 Payload
質量 960.00 kg
乾燥質量 910.00 kg
総質量 960.00 kg
長さ 0.30 m
直径 4.10 m
スパン 29.00 m
形状 Box + pan
製造者 SPXS
バスタイプ Starlink V2MD
フェーズステータス In Orbit
所有者/国 SPXS/US

Most Searched